When you browse on this site, cookies collect data to enhance your experience and personalize the content and advertising you see.
Visit our Privacy Policy to learn more. By continuing to use the site, you agree to this use of cookies and data.
  • In Switzerland
  • List of Countries
  • For 7 days
  • Water Temperature
  • Weather Map
  • Weather Widgets
  • user-avatar
    Login

    Hourly Weather Chichester

    Today, 17 September, Tuesday

    Time Temperature Precipitation Wind Pressure Humidity
    00:00 +14°C° 0 mm 3 mps 766 mmHg 87%
    01:00 +14°C° 0 mm 3 mps 765 mmHg 86%
    02:00 +13°C° 0 mm 3 mps 765 mmHg 85%
    03:00 +12°C° 0 mm 4 mps 765 mmHg 85%
    04:00 +12°C° 0 mm 4 mps 765 mmHg 85%
    05:00 +11°C° 0 mm 4 mps 766 mmHg 86%
    06:00 +10°C° 0 mm 4 mps 766 mmHg 86%
    07:00 +11°C° 0 mm 4 mps 766 mmHg 81%
    08:00 +13°C° 0 mm 4 mps 766 mmHg 75%
    09:00 +14°C° 0 mm 4 mps 767 mmHg 70%
    10:00 +15°C° 0 mm 4 mps 767 mmHg 64%
    11:00 +18°C° 0 mm 4 mps 767 mmHg 59%
    12:00 +19°C° 0 mm 4 mps 767 mmHg 53%
    13:00 +19°C° 0 mm 4 mps 767 mmHg 53%
    14:00 +19°C° 0 mm 4 mps 767 mmHg 52%
    15:00 +19°C° 0 mm 4 mps 767 mmHg 52%
    16:00 +18°C° 0 mm 4 mps 767 mmHg 56%
    17:00 +17°C° 0 mm 4 mps 767 mmHg 60%
    18:00 +15°C° 0 mm 4 mps 767 mmHg 64%
    19:00 +14°C° 0 mm 5 mps 768 mmHg 65%
    20:00 +13°C° 0 mm 5 mps 768 mmHg 67%
    21:00 +11°C° 0 mm 6 mps 769 mmHg 69%
    22:00 +10°C° 0 mm 6 mps 769 mmHg 71%
    23:00 +9°C° 0 mm 5 mps 769 mmHg 72%

    Tomorrow, 18 September, Wednesday

    Time Temperature Precipitation Wind Pressure Humidity
    00:00 +9°C° 0 mm 5 mps 769 mmHg 74%
    01:00 +8°C° 0 mm 5 mps 769 mmHg 75%
    02:00 +8°C° 0 mm 5 mps 769 mmHg 76%
    03:00 +7°C° 0 mm 4 mps 769 mmHg 77%
    04:00 +7°C° 0 mm 4 mps 770 mmHg 78%
    05:00 +7°C° 0 mm 4 mps 770 mmHg 80%
    06:00 +7°C° 0 mm 4 mps 770 mmHg 81%
    07:00 +8°C° 0 mm 4 mps 770 mmHg 75%
    08:00 +10°C° 0 mm 5 mps 771 mmHg 68%
    09:00 +13°C° 0 mm 5 mps 771 mmHg 62%
    10:00 +14°C° 0 mm 5 mps 771 mmHg 56%
    11:00 +15°C° 0 mm 4 mps 770 mmHg 51%
    12:00 +17°C° 0 mm 4 mps 770 mmHg 45%
    13:00 +18°C° 0 mm 4 mps 770 mmHg 45%
    14:00 +18°C° 0 mm 4 mps 770 mmHg 45%
    15:00 +19°C° 0 mm 4 mps 770 mmHg 44%
    16:00 +18°C° 0 mm 4 mps 770 mmHg 50%
    17:00 +15°C° 0 mm 4 mps 770 mmHg 56%
    18:00 +14°C° 0 mm 4 mps 770 mmHg 61%
    19:00 +13°C° 0 mm 4 mps 770 mmHg 64%
    20:00 +12°C° 0 mm 4 mps 771 mmHg 67%
    21:00 +12°C° 0 mm 4 mps 771 mmHg 70%
    22:00 +11°C° 0 mm 4 mps 771 mmHg 73%
    23:00 +11°C° 0 mm 3 mps 771 mmHg 76%

    Day after tomorrow, 19 September, Thursday

    Time Temperature Precipitation Wind Pressure Humidity
    00:00 +10°C° 0 mm 3 mps 771 mmHg 79%
    01:00 +10°C° 0 mm 3 mps 771 mmHg 80%
    02:00 +10°C° 0 mm 3 mps 771 mmHg 82%
    03:00 +10°C° 0 mm 2 mps 771 mmHg 83%
    04:00 +10°C° 0 mm 2 mps 771 mmHg 83%
    05:00 +9°C° 0 mm 2 mps 771 mmHg 84%
    06:00 +9°C° 0 mm 2 mps 771 mmHg 84%
    07:00 +12°C° 0 mm 2 mps 771 mmHg 77%
    08:00 +13°C° 0 mm 3 mps 772 mmHg 70%
    09:00 +16°C° 0 mm 3 mps 772 mmHg 62%
    10:00 +17°C° 0 mm 3 mps 772 mmHg 60%
    11:00 +18°C° 0 mm 3 mps 772 mmHg 57%
    12:00 +19°C° 0 mm 3 mps 772 mmHg 54%
    13:00 +19°C° 0 mm 3 mps 771 mmHg 53%
    14:00 +20°C° 0 mm 3 mps 771 mmHg 53%
    15:00 +20°C° 0 mm 3 mps 771 mmHg 53%
    16:00 +19°C° 0 mm 3 mps 771 mmHg 60%
    17:00 +17°C° 0 mm 3 mps 770 mmHg 67%
    18:00 +16°C° 0 mm 3 mps 770 mmHg 74%
    19:00 +14°C° 0 mm 3 mps 770 mmHg 76%
    20:00 +13°C° 0 mm 4 mps 770 mmHg 78%
    21:00 +12°C° 0 mm 4 mps 771 mmHg 81%
    22:00 +12°C° 0 mm 5 mps 770 mmHg 83%
    23:00 +12°C° 0 mm 5 mps 770 mmHg 86%

    20 September, Friday

    Time Temperature Precipitation Wind Pressure Humidity
    00:00 +10°C° 0 mm 5 mps 770 mmHg 89%
    01:00 +10°C° 0 mm 5 mps 770 mmHg 89%
    02:00 +10°C° 0 mm 5 mps 770 mmHg 90%
    03:00 +10°C° 0 mm 5 mps 770 mmHg 90%
    04:00 +10°C° 0 mm 5 mps 769 mmHg 89%
    05:00 +10°C° 0 mm 5 mps 769 mmHg 89%
    06:00 +9°C° 0 mm 5 mps 768 mmHg 88%
    07:00 +11°C° 0 mm 6 mps 768 mmHg 79%
    08:00 +14°C° 0 mm 7 mps 768 mmHg 69%
    09:00 +15°C° 0 mm 7 mps 768 mmHg 60%
    10:00 +16°C° 0 mm 8 mps 768 mmHg 55%
    11:00 +17°C° 0 mm 8 mps 767 mmHg 51%
    12:00 +18°C° 0 mm 8 mps 767 mmHg 46%
    13:00 +18°C° 0 mm 8 mps 766 mmHg 46%
    14:00 +20°C° 0 mm 8 mps 765 mmHg 45%
    15:00 +20°C° 0 mm 8 mps 765 mmHg 45%
    16:00 +18°C° 0 mm 8 mps 764 mmHg 49%
    17:00 +17°C° 0 mm 8 mps 764 mmHg 52%
    18:00 +16°C° 0 mm 7 mps 763 mmHg 56%
    19:00 +15°C° 0 mm 7 mps 763 mmHg 59%
    20:00 +15°C° 0 mm 7 mps 763 mmHg 62%
    21:00 +14°C° 0 mm 7 mps 763 mmHg 65%
    22:00 +14°C° 0 mm 7 mps 762 mmHg 66%
    23:00 +14°C° 0 mm 7 mps 762 mmHg 67%

    21 September, Saturday

    Time Temperature Precipitation Wind Pressure Humidity
    00:00 +14°C° 0 mm 7 mps 761 mmHg 67%
    01:00 +14°C° 0 mm 7 mps 761 mmHg 69%
    02:00 +12°C° 0 mm 7 mps 760 mmHg 70%
    03:00 +13°C° 0 mm 6 mps 760 mmHg 71%
    04:00 +13°C° 0 mm 6 mps 759 mmHg 74%
    05:00 +11°C° 0 mm 6 mps 759 mmHg 77%
    06:00 +11°C° 0 mm 6 mps 758 mmHg 79%
    07:00 +14°C° 0 mm 6 mps 758 mmHg 75%
    08:00 +15°C° 0 mm 7 mps 758 mmHg 70%
    09:00 +17°C° 0 mm 7 mps 758 mmHg 66%
    10:00 +17°C° 0 mm 7 mps 758 mmHg 65%
    11:00 +18°C° 0 mm 7 mps 757 mmHg 64%
    12:00 +20°C° 0 mm 6 mps 757 mmHg 64%
    13:00 +21°C° 0 mm 6 mps 757 mmHg 63%
    14:00 +22°C° 0 mm 6 mps 756 mmHg 63%
    15:00 +22°C° 0 mm 5 mps 756 mmHg 62%
    16:00 +21°C° 0.3 mm 5 mps 756 mmHg 68%
    17:00 +20°C° 0.3 mm 4 mps 756 mmHg 73%
    18:00 +19°C° 0.3 mm 3 mps 756 mmHg 79%
    19:00 +19°C° 0.8 mm 4 mps 756 mmHg 83%
    20:00 +19°C° 0.8 mm 4 mps 756 mmHg 88%
    21:00 +19°C° 0.8 mm 4 mps 756 mmHg 92%
    22:00 +18°C° 0.1 mm 4 mps 756 mmHg 92%
    23:00 +18°C° 0.1 mm 4 mps 756 mmHg 92%

    22 September, Sunday

    Time Temperature Precipitation Wind Pressure Humidity
    00:00 +17°C° 0.1 mm 4 mps 756 mmHg 91%
    01:00 +17°C° 0 mm 4 mps 756 mmHg 92%
    02:00 +17°C° 0 mm 4 mps 756 mmHg 93%
    03:00 +16°C° 0 mm 5 mps 756 mmHg 94%
    04:00 +16°C° 0 mm 5 mps 756 mmHg 94%
    05:00 +16°C° 0 mm 5 mps 757 mmHg 94%
    06:00 +16°C° 0 mm 5 mps 757 mmHg 94%
    07:00 +17°C° 0.2 mm 5 mps 757 mmHg 92%
    08:00 +17°C° 0.2 mm 5 mps 757 mmHg 90%
    09:00 +17°C° 0.2 mm 5 mps 757 mmHg 88%
    10:00 +19°C° 0 mm 5 mps 758 mmHg 84%
    11:00 +19°C° 0 mm 5 mps 758 mmHg 79%
    12:00 +19°C° 0 mm 4 mps 758 mmHg 75%
    13:00 +19°C° 0 mm 5 mps 758 mmHg 76%
    14:00 +19°C° 0 mm 5 mps 758 mmHg 77%
    15:00 +19°C° 0 mm 5 mps 758 mmHg 78%
    16:00 +17°C° 0.2 mm 5 mps 758 mmHg 82%
    17:00 +16°C° 0.2 mm 5 mps 758 mmHg 86%
    18:00 +16°C° 0.2 mm 5 mps 759 mmHg 90%
    19:00 +15°C° 0 mm 4 mps 759 mmHg 91%
    20:00 +15°C° 0 mm 4 mps 760 mmHg 92%
    21:00 +14°C° 0 mm 4 mps 760 mmHg 93%
    22:00 +14°C° 0 mm 4 mps 761 mmHg 92%
    23:00 +13°C° 0 mm 4 mps 761 mmHg 91%
    Show more